Find Starlink 11453

NORAD ID: 62411 Int'l Des: 2024-249 Owner: SPXS Country: US Constellation: starlink operational
LEOCIRCULAR

リアルタイム位置

3D地球を読み込み中...

Starlink 11453について

説明を読み込み中...

次回通過

Passes for default location (London). Set your location on the main map for personalized predictions.

高度履歴

Loading altitude history...

軌道要素

1 62411U 24249C 26124.59420716 .00110634 00000-0 85471-3 0 9997
2 62411 42.9995 190.6208 0001187 258.7481 101.3253 15.70827787 78273
Epoch: May 4, 2026 • Age: 7 hours

現在のステータス

高度 366.4 km
速度 7.69 km/s
衛星直下点 -36.96°S, 121.4°W
打ち上げ日 Dec 23, 2024
運用期間 1.3 years
タイプ internet

技術仕様

分類 Payload
質量 960.00 kg
乾燥質量 910.00 kg
総質量 960.00 kg
長さ 0.30 m
直径 4.10 m
スパン 29.00 m
形状 Box + pan
製造者 SPXS
バスタイプ Starlink V2MD
フェーズステータス In Orbit
所有者/国 SPXS/US

Most Searched